Location: Mentone
(34.5413°N, 85.5351°W)
Time: 16:17:27
(UTC-05:00)

Cosmos 2026 Rocket - Visible Passes

Search period start: 02 September 2014 00:00
Search period end: 12 September 2014 00:00
Orbit: 939 x 1002 km, 82.9° (Epoch: 31 August)

Date Brightness Start Highest point End Pass type
(mag) Time Alt. Az. Time Alt. Az. Time Alt. Az.
02 Sep 6.4 01:07:32 15° N 01:07:32 15° N 01:08:24 10° N visible
03 Sep 6.5 01:31:32 14° N 01:31:32 14° N 01:32:18 10° N visible
04 Sep 6.6 01:55:31 11° NNW 01:55:31 11° NNW 01:55:43 10° NNW visible
05 Sep 6.6 00:34:56 12° NNE 00:34:56 12° NNE 00:35:14 10° NNE visible
06 Sep 6.6 00:58:55 12° N 00:58:55 12° N 00:59:17 10° N visible
07 Sep 6.7 01:22:53 10° NNW 01:22:53 10° NNW 01:22:55 10° NNW visible
